Amasya

Turkey     40˚39′04″N   35˚49′44″E
temp.,
°C
wind,
m/s
gust,
m/s
humid.,
%
clouds,
%
prec.,
mm/h
press.,
hPa
HPBL,
m
29 november, sun
sun2900:00+3˚sse12410 0.0 102322
03:00+2˚sse22460 0.0 102322
06:00+1˚sse22520 0.0 102322
09:00+3˚sse12510 0.0 102429
12:00+8˚ssw22350 0.0 1022288
15:00+10˚s12290 0.0 1020343
18:00+6˚ese11400 0.0 102122
21:00+4˚ese11420 0.0 102222
30 november, mon
mon3000:00+3˚se11470 0.0 102222
03:00+2˚se114825 0.0 102022
06:00+2˚se114899 0.0 102022
09:00+4˚sse114599 0.0 102025
12:00+8˚ssw113889 0.0 1017255
15:00+9˚ssw123993 0.0 1016235
18:00+6˚sse1149100 0.0 101622
21:00+5˚sse1152100 0.0 101722
1 december, tue
tue100:00+4˚sse115698 0.0 101722
03:00+4˚sse115699 0.0 101722
06:00+3˚se115897 0.0 101722
09:00+5˚se115587 0.0 101823
12:00+10˚ssw124359 0.0 1016326
15:00+11˚sw124465 0.0 1015559
18:00+9˚ene125597 0.0 101622
21:00+7˚e116872 0.0 101824
2 december, wed
wed200:00+6˚ese117418 0.0 101822
03:00+5˚se117925 0.0 101922
06:00+5˚sse118080 0.0 102022
09:00+7˚s117187 0.0 102026
12:00+10˚sw225866 0.0 1020440
15:00+11˚wsw125767 0.0 1018487
18:00+8˚ne117051 0.0 102022
21:00+6˚wnw117959 0.0 102122
3 december, thu
thu300:00+6˚se118240 0.0 102222
03:00+5˚ese118320 0.0 102222
06:00+4˚sse018310 0.0 102222
09:00+6˚se117630 0.0 102327
12:00+10˚sw115962 0.0 1021307
15:00+12˚sw115155 0.0 1020356
18:00+9˚ne116281 0.0 102122
21:00+7˚ese116553 0.0 102122